Weather History for Junction, TX

Change the Weather History Date:

Wednesday, December 12, 2012

  Actual Average Record
Temperature  
Mean Temperature 39 °F -  
Max Temperature 59 °F 59 °F 80 °F (2004)
Min Temperature 19 °F 30 °F 19 °F (1997)
Degree Days  
Heating Degree Days 26    
Moisture  
Dew Point 15 °F    
Average Humidity 40    
Maximum Humidity 68    
Minimum Humidity 13    
Precipitation  
Precipitation 0.00 in - - ()
Sea Level Pressure  
Sea Level Pressure 30.18 in    
Wind  
Wind Speed 3 mph (SW)    
Max Wind Speed 13 mph    
Max Gust Speed 16 mph    
Visibility 9 miles    
Events      
Averages and records for this station are not official NWS values.
T = Trace of Precipitation, MM = Missing Value Source: NWS Daily Summary

Daily Weather History Graph

Daily Weather History Graph

Search for Another Location

Airport:

Trip Planner

Search our weather history database for the weather conditions in past years. The results will help you decide how hot, cold, wet, or windy it might be!

Date:

Astronomy

Dec. 12, 2012 Rise Set
Actual Time 7:26 AM CST 5:39 PM CST
Civil Twilight 7:00 AM CST 6:05 PM CST
Nautical Twilight 6:30 AM CST 6:35 PM CST
Astronomical Twilight 6:01 AM CST 7:04 PM CST
Moon 6:34 AM CST (12/12) 5:16 PM CST (12/12)
Length of Visible Light 11h 05m
Length of Day
10h 12m
Waning Crescent, 1% of the Moon is Illuminated
Dec 12
Waning Crescent
Dec 13
New
Dec 19
First Quarter
Dec 28
Full
Jan 4
Last Quarter

Hourly Weather History & Observations

Time (CST) Temp. Windchill Dew Point Humidity Pressure Visibility Wind Dir Wind Speed Gust Speed Precip Events Conditions
12:51 AM 27.0 °F - 12.9 °F 56% 30.17 in 10.0 mi Calm Calm - N/A   Clear
1:51 AM 25.0 °F 20.7 °F 12.9 °F 60% 30.16 in 10.0 mi West 3.5 mph - N/A   Clear
2:51 AM 25.0 °F 20.7 °F 12.9 °F 60% 30.17 in 10.0 mi West 3.5 mph - N/A   Clear
3:51 AM 23.0 °F 18.4 °F 12.0 °F 63% 30.17 in 10.0 mi WNW 3.5 mph - N/A   Clear
4:51 AM 21.0 °F - 10.9 °F 65% 30.18 in 10.0 mi Calm Calm - N/A   Clear
5:51 AM 21.0 °F - 12.0 °F 68% 30.19 in 10.0 mi Calm Calm - N/A   Clear
6:51 AM 21.0 °F - 10.9 °F 65% 30.21 in 9.0 mi Calm Calm - N/A   Clear
7:51 AM 21.0 °F - 10.9 °F 65% 30.23 in 6.0 mi Calm Calm - N/A   Haze
8:51 AM 27.0 °F - 12.9 °F 56% 30.25 in 7.0 mi Calm Calm - N/A   Clear
9:51 AM 37.9 °F - 17.1 °F 43% 30.25 in 7.0 mi Calm Calm - N/A   Clear
10:51 AM 48.0 °F - 19.9 °F 33% 30.24 in 7.0 mi Calm Calm - N/A   Clear
11:51 AM 57.0 °F - 19.9 °F 24% 30.21 in 9.0 mi SSW 10.4 mph - N/A   Clear
12:51 PM 61.0 °F - 19.0 °F 20% 30.17 in 9.0 mi SW 11.5 mph 16.1 mph N/A   Clear
1:51 PM 63.0 °F - 18.0 °F 18% 30.13 in 9.0 mi SSW 12.7 mph - N/A   Clear
2:51 PM 64.9 °F - 16.0 °F 15% 30.10 in 9.0 mi SSW 12.7 mph - N/A   Clear
3:51 PM 64.9 °F - 15.1 °F 15% 30.10 in 10.0 mi South 9.2 mph - N/A   Clear
4:51 PM 64.0 °F - 16.0 °F 16% 30.10 in 10.0 mi South 10.4 mph - N/A   Clear
5:51 PM 59.0 °F - 17.1 °F 20% 30.12 in 9.0 mi South 9.2 mph - N/A   Clear
6:51 PM 55.0 °F - 17.1 °F 23% 30.14 in 10.0 mi South 4.6 mph - N/A   Clear
7:51 PM 51.1 °F - 17.1 °F 26% 30.17 in 10.0 mi South 4.6 mph - N/A   Clear
8:51 PM 48.0 °F - 17.1 °F 29% 30.17 in 10.0 mi Calm Calm - N/A   Clear
9:51 PM 42.1 °F - 16.0 °F 35% 30.18 in 10.0 mi Calm Calm - N/A   Clear
10:51 PM 34.0 °F 31.0 °F 15.1 °F 46% 30.19 in 10.0 mi WNW 3.5 mph - N/A   Clear
11:51 PM 33.1 °F - 15.1 °F 48% 30.18 in 10.0 mi Calm Calm - N/A   Clear